Weather History for Plattsburgh, NY

Change the Weather History Date:

Thursday, March 14, 2013

  Actual Average Record
Temperature  
Mean Temperature 25 °F 30 °F  
Max Temperature 33 °F 39 °F 52 °F (1957)
Min Temperature 17 °F 20 °F -8 °F (2014)
Degree Days  
Heating Degree Days 40 35  
Month to date heating degree days 445 521  
Since 1 July heating degree days 5596 6133  
Cooling Degree Days 0 0  
Month to date cooling degree days 0 0  
Year to date cooling degree days 0 0  
Moisture  
Dew Point 9 °F    
Average Humidity 54    
Maximum Humidity 63    
Minimum Humidity 45    
Precipitation  
Precipitation 0.00 in - 1.00 in (1993)
Month to date precipitation 0.70  
Year to date precipitation 2.18  
Sea Level Pressure  
Sea Level Pressure 29.84 in    
Wind  
Wind Speed 8 mph (WNW)    
Max Wind Speed 20 mph    
Max Gust Speed 31 mph    
Visibility 10 miles    
Events      
T = Trace of Precipitation, MM = Missing Value Source: NWS Daily Summary

Daily Weather History Graph

Daily Weather History Graph

Search for Another Location

Airport:

Trip Planner

Search our weather history database for the weather conditions in past years. The results will help you decide how hot, cold, wet, or windy it might be!

Date:

Astronomy

Mar. 14, 2013 Rise Set
Actual Time 7:07 AM EDT 6:58 PM EDT
Civil Twilight 6:38 AM EDT 7:28 PM EDT
Nautical Twilight 6:04 AM EDT 8:02 PM EDT
Astronomical Twilight 5:30 AM EDT 8:36 PM EDT
Moon 8:11 AM EDT (3/14) 10:22 PM EDT (3/14)
Length of Visible Light 12h 49m
Length of Day
11h 51m
Waxing Crescent, 9% of the Moon is Illuminated
Mar 14
Waxing Crescent
Mar 19
First Quarter
Mar 27
Full
Apr 3
Last Quarter
Apr 10
New

Hourly Weather History & Observations

Time (EDT) Temp. Windchill Dew Point Humidity Pressure Visibility Wind Dir Wind Speed Gust Speed Precip Events Conditions
12:53 AM 33.1 °F 28.7 °F 19.9 °F 59% 29.73 in 10.0 mi Variable 4.6 mph - N/A   Overcast
1:53 AM 32.0 °F 24.8 °F 19.0 °F 59% 29.74 in 10.0 mi WSW 8.1 mph - N/A   Overcast
2:53 AM 32.0 °F 28.7 °F 17.1 °F 54% 29.74 in 10.0 mi Variable 3.5 mph - N/A   Overcast
3:53 AM 30.9 °F 25.2 °F 18.0 °F 59% 29.73 in 10.0 mi Variable 5.8 mph - N/A   Overcast
4:53 AM 30.9 °F 24.3 °F 19.9 °F 64% 29.73 in 10.0 mi Variable 6.9 mph - N/A   Overcast
5:53 AM 30.0 °F 25.2 °F 16.0 °F 56% 29.73 in 10.0 mi Variable 4.6 mph 19.6 mph N/A   Overcast
6:53 AM 28.0 °F 18.1 °F 14.0 °F 56% 29.76 in 10.0 mi WSW 11.5 mph 19.6 mph N/A   Overcast
7:53 AM 26.1 °F 20.5 °F 14.0 °F 60% 29.78 in 10.0 mi Variable 4.6 mph 16.1 mph N/A   Overcast
8:53 AM 24.1 °F 15.2 °F 9.0 °F 53% 29.81 in 10.0 mi WNW 8.1 mph - N/A   Overcast
9:53 AM 23.0 °F 13.9 °F 8.1 °F 53% 29.83 in 10.0 mi West 8.1 mph 18.4 mph N/A   Overcast
10:53 AM 23.0 °F 12.4 °F 8.1 °F 53% 29.84 in 10.0 mi West 10.4 mph 17.3 mph N/A   Overcast
11:53 AM 23.0 °F 15.8 °F 5.0 °F 46% 29.84 in 10.0 mi Variable 5.8 mph - N/A   Overcast
12:53 PM 23.0 °F 13.1 °F 5.0 °F 46% 29.86 in 10.0 mi WNW 9.2 mph 18.4 mph N/A   Overcast
1:53 PM 21.0 °F 8.1 °F 3.0 °F 46% 29.86 in 10.0 mi WNW 13.8 mph 25.3 mph N/A   Overcast
2:53 PM 21.0 °F 7.1 °F 3.0 °F 46% 29.86 in 10.0 mi WNW 16.1 mph 24.2 mph N/A   Overcast
3:53 PM 21.0 °F 11.4 °F 3.9 °F 48% 29.87 in 10.0 mi WNW 8.1 mph 18.4 mph N/A   Overcast
4:53 PM 21.0 °F 8.6 °F 3.0 °F 46% 29.88 in 10.0 mi NW 12.7 mph 20.7 mph N/A   Overcast
5:53 PM 21.0 °F 9.3 °F 3.9 °F 48% 29.89 in 10.0 mi NW 11.5 mph 16.1 mph N/A   Overcast
6:53 PM 19.9 °F 10.1 °F 5.0 °F 52% 29.91 in 10.0 mi NW 8.1 mph - N/A   Overcast
7:53 PM 19.0 °F 12.3 °F 7.0 °F 59% 29.93 in 10.0 mi NW 4.6 mph - N/A   Overcast
8:53 PM 19.0 °F - 6.1 °F 57% 29.94 in 10.0 mi Calm Calm - N/A   Overcast
9:53 PM 19.0 °F 6.8 °F 3.9 °F 52% 29.94 in 10.0 mi NW 11.5 mph 17.3 mph N/A   Overcast
10:53 PM 18.0 °F 6.1 °F 1.9 °F 50% 29.94 in 10.0 mi WNW 10.4 mph 18.4 mph N/A   Clear
11:53 PM 17.1 °F 10.0 °F 1.9 °F 52% 29.94 in 10.0 mi WNW 4.6 mph - N/A   Clear